(276617) = 2003 UN102

Discovered at Palomar on 2003-10-20 by NEAT.

Orbit

Orbit type: Main Belt

Note: WebGL enabled browser required.

epoch2024-03-31.0
epoch JD2460400.5
perihelion date2021-12-21.68521
perihelion JD2459570.18521
argument of perihelion (°)63.42331
ascending node (°)276.38157
inclination (°)6.26599
eccentricity0.2386882
perihelion distance (AU)2.1128107
Tisserand w.r.t. Jupiter3.3
ΔV w.r.t. Earth (km/sec)9.4
semimajor axis (AU)2.7752238
mean anomaly (°)177.01073
mean daily motion (°/day)0.21318510
aphelion distance (AU)3.438
period (years)4.62
P-vector [x]0.93321272
P-vector [y]-0.35610407
P-vector [z]-0.04799910
Q-vector [x]0.34256197
Q-vector [y]0.84138124
Q-vector [z]0.41800587
absolute magnitude16.64
phase slope0.15
uncertainty0
referenceMPEC 2024-C181
observations used234
oppositions14
arc length (days)7451
first opposition used2003
last opposition used2024
residual rms (arc-secs)0.74
perturbers coarse indicatorM-v
perturbers precise indicator003Ek
first observation date used2003-09-21.0
last observation date used2024-02-14.0
computer nameMPCLINUX
JD of orbit computation2455941.227262
perihelion JD uncertainty (days)2.1879E-04
argument of perihelion uncertainty (°)1.0492E-04
ascending node uncertainty (°)9.9937E-05
inclination uncertainty (°)6.6921E-06
eccentricity uncertainty 9.2584E-08
perihelion distance uncertainty (AU)2.7276E-07
Minimum Orbit Intersection Distances (in AU)
for orbit epoch: 2460400.5, reference: E2024-CI1
Mercury1.72727
Venus1.39849
Earth1.11272
Mars0.76277
Jupiter1.99833
Saturn5.84843
Uranus15.0299
Neptune26.9651

Observations

236 total observations over interval: 2003 09 21.46272 – 2024 02 14.496919
These data are available for download (format description).

Date (UT) J2000 RA J2000 Dec Magn Location Ref
2003 09 21.46272 01 24 36.25 +20 30 41.3 20.5 V 691 – Steward Observatory, Kitt Peak-Spacewatch MPS 155880
2003 09 21.47888 01 24 35.63 +20 30 39.9 20.8 V 691 – Steward Observatory, Kitt Peak-Spacewatch MPS 155880
2003 09 21.49462 01 24 35.03 +20 30 38.5 20.7 V 691 – Steward Observatory, Kitt Peak-Spacewatch MPS 155880
2003 09 30.29983 01 18 33.54 +20 08 47.4 18.9   704 – Lincoln Laboratory ETS, New Mexico MPS 155880
2003 09 30.31272 01 18 32.98 +20 08 44.4 19.5   704 – Lincoln Laboratory ETS, New Mexico MPS 155880
2003 09 30.32595 01 18 32.28 +20 08 41.6 19.3   704 – Lincoln Laboratory ETS, New Mexico MPS 155880
2003 09 30.33939 01 18 31.54 +20 08 38.9 19.5   704 – Lincoln Laboratory ETS, New Mexico MPS 155880
2003 09 30.35235 01 18 31.06 +20 08 35.1 19.5   704 – Lincoln Laboratory ETS, New Mexico MPS 155880
2003 10 16.19270 01 05 36.35 +18 45 55.9 19.0   644 – Palomar Mountain/NEAT MPS 90618
2003 10 16.26480 01 05 32.66 +18 45 28.0 19.1   644 – Palomar Mountain/NEAT MPS 90618
2003 10 16.32799 01 05 29.40 +18 45 03.0 18.9   644 – Palomar Mountain/NEAT MPS 90618
2003 10 17.28341 01 04 43.15 +18 38 43.4 20.3 V 691 – Steward Observatory, Kitt Peak-Spacewatch MPS 90618
2003 10 17.32243 01 04 41.15 +18 38 27.7 20.2 V 691 – Steward Observatory, Kitt Peak-Spacewatch MPS 90618
2003 10 17.34918 01 04 39.79 +18 38 16.6 20.3 V 691 – Steward Observatory, Kitt Peak-Spacewatch MPS 90618
2003 10 20.33105 01 02 18.61 +18 17 53.0 18.6   644 – Palomar Mountain/NEAT MPS 89710
2003 10 20.35382 01 02 17.51 +18 17 43.2 18.7   644 – Palomar Mountain/NEAT MPS 89710
2003 10 20.37883 01 02 16.30 +18 17 32.5 18.8   644 – Palomar Mountain/NEAT MPS 89710
2003 10 21.27500 01 01 35.27 +18 11 15.3 19.3   704 – Lincoln Laboratory ETS, New Mexico MPS 89710
2003 10 21.28791 01 01 34.72 +18 11 09.5 18.9   704 – Lincoln Laboratory ETS, New Mexico MPS 89710
2003 10 21.30067 01 01 34.03 +18 11 02.9 19.6   704 – Lincoln Laboratory ETS, New Mexico MPS 89710
2003 10 21.31337 01 01 33.39 +18 10 58.7 19.6   704 – Lincoln Laboratory ETS, New Mexico MPS 89710
2003 11 19.19088 00 48 52.83 +14 57 31.6 19.4   704 – Lincoln Laboratory ETS, New Mexico MPS 155880
2003 11 19.20380 00 48 52.69 +14 57 27.1 19.8   704 – Lincoln Laboratory ETS, New Mexico MPS 155880
2003 11 19.21660 00 48 52.63 +14 57 22.5 20.0   704 – Lincoln Laboratory ETS, New Mexico MPS 155880
2003 11 19.24222 00 48 52.57 +14 57 14.4 19.9   704 – Lincoln Laboratory ETS, New Mexico MPS 155880
2005 01 16.26408 08 26 06.79 +15 11 38.6 21.4 V 691 – Steward Observatory, Kitt Peak-Spacewatch MPS 309292
2005 01 16.29372 08 26 05.10 +15 11 41.8 21.3 V 691 – Steward Observatory, Kitt Peak-Spacewatch MPS 309292
2005 01 16.31963 08 26 03.58 +15 11 44.8 21.1 V 691 – Steward Observatory, Kitt Peak-Spacewatch MPS 309292
2008 10 29.43040 05 11 54.61 +27 58 42.7 20.5 V 691 – Steward Observatory, Kitt Peak-Spacewatch MPS 309292
2008 10 29.44811 05 11 54.11 +27 58 41.8 20.8 V 691 – Steward Observatory, Kitt Peak-Spacewatch MPS 309292
2008 10 29.46583 05 11 53.60 +27 58 40.3 20.7 V 691 – Steward Observatory, Kitt Peak-Spacewatch MPS 309292
2008 12 06.25348 04 39 09.03 +26 13 22.0   704 – Lincoln Laboratory ETS, New Mexico MPS 407510
2008 12 06.26603 04 39 08.22 +26 13 19.1   704 – Lincoln Laboratory ETS, New Mexico MPS 407510
2008 12 06.29130 04 39 06.56 +26 13 12.0   704 – Lincoln Laboratory ETS, New Mexico MPS 407510
2009 01 31.13290 04 15 38.26 +22 55 58.2 21.1 V G96 – Mt. Lemmon Survey MPS 309292
2009 01 31.13940 04 15 38.37 +22 55 57.8 21.6 V G96 – Mt. Lemmon Survey MPS 309292
2009 01 31.14590 04 15 38.52 +22 55 57.5 21.1 V G96 – Mt. Lemmon Survey MPS 309292
2009 01 31.15241 04 15 38.59 +22 55 56.6 21.0 V G96 – Mt. Lemmon Survey MPS 309292
2010 02 15.37024 09 42 43.30 +06 37 59.5 21.1 V G96 – Mt. Lemmon Survey MPS 313091
2010 02 15.37665 09 42 42.98 +06 38 00.5 21.3 V G96 – Mt. Lemmon Survey MPS 313091
2010 02 15.38316 09 42 42.66 +06 38 02.1 21.1 V G96 – Mt. Lemmon Survey MPS 313091
2010 02 15.38965 09 42 42.30 +06 38 03.2 21.2 V G96 – Mt. Lemmon Survey MPS 313091
2011 04 13.31030 13 30 57.56 -18 50 43.0 21.5 V G96 – Mt. Lemmon Survey MPS 378594
2011 04 13.31809 13 30 57.16 -18 50 40.4 20.0 V G96 – Mt. Lemmon Survey MPS 378594
2011 04 13.32596 13 30 56.70 -18 50 38.0 20.7 V G96 – Mt. Lemmon Survey MPS 378594
2011 04 13.33380 13 30 56.30 -18 50 35.9 20.6 V G96 – Mt. Lemmon Survey MPS 378594
2011 04 28.34156 13 18 19.534 -17 28 16.79 21.1 w F51 – Pan-STARRS 1, Haleakala MPS 380016
2011 04 28.35565 13 18 18.826 -17 28 11.95 21.1 w F51 – Pan-STARRS 1, Haleakala MPS 380016
2011 04 28.36988 13 18 18.128 -17 28 06.76 21.2 w F51 – Pan-STARRS 1, Haleakala MPS 380016
2011 04 28.38398 13 18 17.428 -17 28 01.75 21.3 w F51 – Pan-STARRS 1, Haleakala MPS 380017
2011 05 09.23723 13 10 22.72 -16 23 20.1 21.4 V G96 – Mt. Lemmon Survey MPS 382124
2011 05 09.24535 13 10 22.40 -16 23 17.2 21.4 V G96 – Mt. Lemmon Survey MPS 382124
2011 05 09.25340 13 10 22.11 -16 23 14.4 21.4 V G96 – Mt. Lemmon Survey MPS 382124
2011 05 09.26148 13 10 21.79 -16 23 11.4 21.0 V G96 – Mt. Lemmon Survey MPS 382124
2012 08 07.35759 22 09 48.924 -02 03 11.69 19.6 r F51 – Pan-STARRS 1, Haleakala MPS 429305
2012 08 07.36722 22 09 48.516 -02 03 11.27 19.4 r F51 – Pan-STARRS 1, Haleakala MPS 429305
2012 08 07.47933 22 09 43.554 -02 03 06.39 19.4 i F51 – Pan-STARRS 1, Haleakala MPS 429305
2012 08 07.49006 22 09 43.080 -02 03 06.26 19.4 i F51 – Pan-STARRS 1, Haleakala MPS 429305
2012 08 10.25190 22 07 44.75 -02 01 48.7 19.0 G G45 – Space Surveillance Telescope, Atom Site MPS 1608805
2012 08 10.35748 22 07 39.83 -02 01 47.3 19.2 G G45 – Space Surveillance Telescope, Atom Site MPS 1608805
2012 08 10.37220 22 07 39.15 -02 01 47.5 18.7 G G45 – Space Surveillance Telescope, Atom Site MPS 1608805
2012 08 10.39880 22 07 37.89 -02 01 47.1 19.1 G G45 – Space Surveillance Telescope, Atom Site MPS 1608805
2012 08 10.40330 22 07 38.058 -02 01 45.50 19.1 g F51 – Pan-STARRS 1, Haleakala MPS 429972
2012 08 10.41399 22 07 37.557 -02 01 45.43 19.1 g F51 – Pan-STARRS 1, Haleakala MPS 429972
2012 08 11.60080 22 06 44.31 -02 01 31.9 19.0 V E12 – Siding Spring Survey MPS 429972
2012 08 11.61359 22 06 43.70 -02 01 31.4 19.1 V E12 – Siding Spring Survey MPS 429972
2012 08 11.62647 22 06 43.09 -02 01 32.3 18.6 V E12 – Siding Spring Survey MPS 429972
2012 08 11.63929 22 06 42.48 -02 01 31.5 19.3 V E12 – Siding Spring Survey MPS 429972
2012 08 13.41552 22 05 20.961 -02 01 57.44 19.0 w F51 – Pan-STARRS 1, Haleakala MPS 429972
2012 08 13.43001 22 05 20.245 -02 01 57.73 18.9 w F51 – Pan-STARRS 1, Haleakala MPS 429972
2012 08 13.44454 22 05 19.525 -02 01 58.03 19.0 w F51 – Pan-STARRS 1, Haleakala MPS 429972
2012 08 18.93858 22 00 56.23 -02 06 17.2 18.9   A14 – Les Engarouines Observatory MPS 431300
2012 08 18.96180 22 00 55.05 -02 06 18.9 19.1   A14 – Les Engarouines Observatory MPS 430979
2012 08 18.98501 22 00 53.87 -02 06 20.4 18.9   A14 – Les Engarouines Observatory MPS 430979
2012 08 19.89251 22 00 09.61 -02 07 30.1 18.8   A14 – Les Engarouines Observatory MPS 431300
2012 08 19.91594 22 00 08.39 -02 07 31.6 18.7   A14 – Les Engarouines Observatory MPS 430979
2012 08 19.93939 22 00 07.18 -02 07 33.3 18.7   A14 – Les Engarouines Observatory MPS 430979
2012 08 21.46279 21 58 52.218 -02 09 43.98 19.1 g F51 – Pan-STARRS 1, Haleakala MPS 430979
2012 08 21.47382 21 58 51.646 -02 09 45.00 19.3 g F51 – Pan-STARRS 1, Haleakala MPS 430979
2012 08 21.48515 21 58 51.058 -02 09 46.00 18.8 r F51 – Pan-STARRS 1, Haleakala MPS 430979
2012 08 21.49562 21 58 50.512 -02 09 47.00 18.8 r F51 – Pan-STARRS 1, Haleakala MPS 430979
2012 08 25.16853 21 55 51.44 -02 16 22.6 19.1 V 691 – Steward Observatory, Kitt Peak-Spacewatch MPS 430979
2012 08 25.17447 21 55 51.20 -02 16 23.4 18.5 V 703 – Catalina Sky Survey MPS 430979
2012 08 25.17961 21 55 50.88 -02 16 22.8 18.2 V 703 – Catalina Sky Survey MPS 430979
2012 08 25.18369 21 55 50.66 -02 16 24.4 19.0 V 691 – Steward Observatory, Kitt Peak-Spacewatch MPS 430979
2012 08 25.18479 21 55 50.55 -02 16 25.5 19.6 V 703 – Catalina Sky Survey MPS 430979
2012 08 25.18996 21 55 50.26 -02 16 25.3 17.9 V 703 – Catalina Sky Survey MPS 430979
